This demonstration page uses our WeatherBlox Daily Observations layout. Learn more.

Left ArrowRight Arrow

Hourly Observations for January 18, 2015

Temp ( °F °C ) Dew Point ( °F °C ) Humidity (%) Winds ( mph kmh ) Pressure ( in mb ) Visibility ( mi km ) Precip ( " mm )
12:52 am 00:52 Clear 40 4.4 25 -3.9 55 55 W 16 26 29.95 1014 10 16 0.00 0.00
1:52 am 01:52 Clear 39 3.9 26 -3.3 60 60 WNW 10 17 29.96 1015 10 16 0.00 0.00
2:52 am 02:52 Clear 39 3.9 25 -3.9 57 57 W 10 17 29.98 1015 10 16 0.00 0.00
3:52 am 03:52 Clear 35 1.7 25 -3.9 67 67 WSW 3 6 29.97 1015 10 16 0.00 0.00
4:52 am 04:52 Clear 34 1.1 24 -4.4 67 67 Calm 29.98 1015 10 16 0.00 0.00
5:52 am 05:52 Clear 33 0.6 24 -4.4 70 70 W 3 6 29.99 1016 10 16 0.00 0.00
6:52 am 06:52 Clear 30 -1.1 23 -5 75 75 VRB 5 7 30.01 1016 10 16 0.00 0.00
7:52 am 07:52 Partly Cloudy 26 -3.3 22 -5.6 84 84 SE 5 7 30.01 1016 10 16 0.00 0.00
8:52 am 08:52 Mostly Sunny 31 -0.6 26 -3.3 82 82 SSE 6 9 30.00 1016 10 16 0.00 0.00
9:52 am 09:52 Mostly Sunny 37 2.8 26 -3.3 65 65 SE 3 6 29.99 1016 10 16 0.00 0.00
10:52 am 10:52 Partly Cloudy 40 4.4 27 -2.8 60 60 SSE 5 7 29.99 1016 10 16 0.00 0.00
11:52 am 11:52 Partly Cloudy 45 7.2 27 -2.8 49 49 SSE 6 9 29.96 1015 10 16 0.00 0.00
12:52 pm 12:52 Partly Cloudy 50 10 27 -2.8 41 41 SSE 8 13 29.92 1013 10 16 0.00 0.00
1:52 pm 13:52 Partly Cloudy 55 12.8 23 -5 29 29 WSW 5 7 29.90 1012 10 16 0.00 0.00
2:52 pm 14:52 Mostly Cloudy 56 13.3 23 -5 28 28 Calm 29.90 1012 10 16 0.00 0.00
3:52 pm 15:52 Mostly Cloudy 56 13.3 23 -5 28 28 E 3 6 29.91 1013 10 16 0.00 0.00
4:52 pm 16:52 Mostly Cloudy 50 10 27 -2.8 41 41 NNE 8 13 29.93 1013 10 16 0.00 0.00
5:52 pm 17:52 Mostly Cloudy 42 5.6 26 -3.3 53 53 NNE 3 6 29.97 1015 10 16 0.00 0.00
6:52 pm 18:52 Mostly Cloudy 41 5 26 -3.3 55 55 Calm 29.99 1016 10 16 0.00 0.00
7:52 pm 19:52 Mostly Cloudy 38 3.3 26 -3.3 62 62 Calm 29.98 1015 10 16 0.00 0.00
8:52 pm 20:52 Partly Cloudy 35 1.7 28 -2.2 76 76 Calm 29.98 1015 10 16 0.00 0.00
9:52 pm 21:52 Partly Cloudy 32 0 26 -3.3 79 79 Calm 29.98 1015 10 16 0.00 0.00
10:52 pm 22:52 Partly Cloudy 30 -1.1 25 -3.9 82 82 Calm 29.98 1015 10 16 0.00 0.00
11:52 pm 23:52 Partly Cloudy 30 -1.1 26 -3.3 85 85 Calm 29.99 1016 10 16 0.00 0.00

Powered by AerisWeather